STARLINK-11629, 63104

Orbit data source: Space-Track

STARLINK-11629, 63104 is a payload satellite owned by SpaceX/Seattle (US) in LEO that was launched on Thu, 27 Feb 2025 UTC via an FALCON 9 launch vehicle from the Air Force Eastern Test Range (AFETR). Payload-class satellites include a variety of spacecraft equipped with specific instruments for various scientific and technological missions. These include communications satellites like Starlink; space stations such as the ISS; scientific satellites like the Hubble; Earth observation satellites from companies like Planet Labs, Umbra, and HawkEye 360; GPS; miniature CubeSats for education and research; and military/defense satellites.

Loading next visibility...
Identifier
63104, 2025-039A
Orbit
LEO
Country
Flag of USUS
Related business
Manufacturer
SpaceX/Seattle
Mission
Operational Commercial Communications
Bus & Motor
STARLINK V2MD, Unknown motor
Mass
960 kg wet, ~910 kg dry
Launch date (UTC)
2025-02-27 (2 years ago)
Launch vehicle
FALCON 9
Launch site
Air Force Eastern Test Range (AFETR)
Object type
Payload
Rocket body
Debris
Shape & HBR
Box + 2 Pan, 18.1 m
Radar Cross Section
36.964 m², Large (>1 m²)

Expand to show TLE details & history
Last TLE update: 2 days ago

TLE from 2 days ago
0 STARLINK-11629
1 63104U 25039A   26252.22616663  .00140059  00000-0  10763-2 0  9990
2 63104  43.0010 210.3098 0001963 270.6345  89.4298 15.70847630 88482
Epoch: 2026-09-09T05:25Z
TLE epoch observation values (Epoch: 2026-09-09T05:25:40.796Z)
Latitude
-0.00002°
Longitude
140.60853°
Altitude
356.232 km
Speed
7.697 km/s
True Right ascension
14h 01m 14s
True Declination
0° 00' 00"
Sunlit
Object was in daylight at epoch
Visualization orbit readout
Latitude
Unknown
Longitude
Unknown
Altitude
Unknown
Speed
Unknown
Apparent Right ascension
Unknown
Apparent Declination
Unknown
Sunlit
N/A
Visualization observer readout
Local Sidereal Time
17:45:08
Azimuth
Unknown
Elevation
Unknown
Doppler factor
Unknown
Orbital elements
Apogee altitude
359.777 km
Perigee altitude
357.132 km
Semi-major axis
6,736.592 km
Eccentricity
0.0002
Inclination
43.001°
RAAN
210.3098°
Arg. of periapsis
270.6345°
True anomaly
89.45229°
Mean anomaly
89.4298°
Eccentric anomaly
89.44105°
Mean motion
3.92539 °/min
Orbital period
91.71 mins
BSTAR
0.0010763
Loading maneuver chart data...
Computing Atmospheric mass density...
Loading historical data...
Loading historical data...
Loading historical data...
Loading historical data...
Loading historical data...
Loading historical data...
Loading historical data...

Documentation

Showing up to 5 results
|